Theta_e
320 319 317 316 315 318 320 320 324 323 327 328 328 329 327 328 328 328 329 330 328 321 314 311 314 313 314 314 316 317 313 315 318 315 317 317 316 317 318 319 319 322 324 323 331
317 319 319 316 315 316 319 321 322 324 327 327 327 324 324 321 318 321 329 327 328 327 319 317 315 314 314 315 315 314 313 316 317 314 315 317 317 317 318 319 322 325 324 325 333
314 319 319 316 315 315 319 321 322 325 326 326 324 324 316 315 317 321 324 325 327 319 322 314 321 319 315 316 316 315 314 315 315 315 317 317 316 315 317 316 319 324 326 328 333
315 319 319 316 315 315 319 321 323 325 326 326 321 321 319 318 314 311 314 323 316 317 315 313 314 313 313 313 314 314 315 314 315 315 316 315 316 315 317 316 317 318 320 329 330
314 316 320 317 316 315 317 320 323 325 325 326 323 320 312 312 312 310 310 321 315 313 314 313 314 314 314 314 314 313 313 314 314 315 316 316 315 314 316 317 316 319 326 327 327
314 316 319 317 316 315 316 318 322 323 325 323 325 319 309 308 312 310 310 317 317 315 314 314 314 315 315 314 313 314 313 313 313 314 315 315 315 316 317 318 317 320 324 326 325
314 315 316 318 316 316 316 319 320 320 319 317 316 318 309 311 310 310 309 317 318 315 310 315 315 316 314 313 315 314 313 312 312 313 313 315 315 314 316 317 318 321 323 324 323
315 314 315 317 316 315 315 317 319 318 313 311 310 309 309 310 310 310 309 309 313 309 310 312 314 314 313 313 313 312 311 312 312 312 313 313 315 313 316 316 318 320 321 322 321
314 314 315 317 316 316 315 316 317 313 311 310 309 308 308 309 309 309 309 309 309 309 310 311 312 312 312 310 310 309 309 310 312 311 311 311 311 311 313 314 316 319 321 321 321
313 314 315 317 316 315 315 315 315 311 310 308 308 308 307 308 309 310 309 310 309 310 311 311 312 309 307 308 312 311 310 310 311 310 311 310 310 310 311 312 315 315 317 320 320
312 314 313 317 316 315 315 315 312 310 309 309 308 308 308 308 308 309 310 310 310 311 307 310 308 308 309 309 310 310 310 310 310 310 311 309 309 308 310 310 311 312 311 312 313
309 314 314 315 316 315 315 311 309 309 311 310 308 309 309 309 309 309 311 311 309 308 308 308 308 308 309 309 310 309 310 310 310 310 309 309 309 308 308 310 312 312 313 313 313
306 314 314 313 316 315 314 309 308 308 308 309 309 309 310 309 309 310 311 311 308 307 307 308 309 309 309 309 309 309 309 309 311 310 309 309 307 307 307 309 311 312 313 314 314
305 312 314 312 315 315 313 309 309 307 309 309 310 308 309 310 310 309 311 311 308 308 306 308 308 309 308 309 308 309 308 309 310 308 309 306 305 306 307 306 307 311 312 313 313
306 308 313 313 315 313 312 308 308 308 308 309 309 309 309 309 309 309 311 311 308 307 307 308 307 308 309 309 308 309 308 309 309 307 308 308 306 306 306 308 307 308 311 312 312
307 307 314 314 314 311 310 308 309 309 310 309 308 309 309 309 309 309 310 310 310 308 308 309 308 307 308 308 308 307 307 306 305 306 308 306 306 306 307 308 308 308 311 312 312
308 307 311 315 313 311 309 309 309 310 308 309 308 309 309 309 308 308 309 308 307 309 308 308 308 307 308 308 308 307 307 307 308 308 308 306 306 308 307 306 306 307 310 312 312
309 306 307 314 313 310 309 309 310 308 309 307 308 308 309 309 309 308 309 310 305 307 306 308 309 307 307 308 308 307 307 309 309 309 307 305 307 308 307 308 309 309 310 311 311
308 308 307 310 313 309 309 310 309 308 309 308 308 308 308 308 309 308 308 309 308 305 308 307 308 307 308 308 309 308 307 307 307 298 307 306 306 307 307 306 306 308 309 310 310
306 309 308 314 312 309 309 309 308 308 308 309 309 308 308 308 309 309 308 308 309 306 307 307 309 308 308 309 309 308 308 310 306 306 307 305 306 307 307 307 305 305 309 310 311
305 309 307 309 311 308 309 309 308 308 309 309 309 309 308 308 309 309 308 308 308 307 306 308 309 309 308 308 308 307 308 307 308 306 308 305 305 303 307 307 305 305 308 309 310
303 303 305 306 309 307 309 308 308 307 309 309 309 309 309 309 309 309 309 309 308 308 307 309 310 310 308 307 307 308 308 308 308 306 305 307 307 304 303 304 307 308 309 310 310
302 303 305 307 308 307 309 309 308 308 309 310 309 310 308 309 309 310 309 308 308 308 308 309 307 306 309 308 308 307 307 307 306 305 306 306 307 303 306 307 308 308 309 310 310
300 303 300 301 300 307 310 309 308 309 309 310 311 309 309 309 309 310 308 308 308 308 309 309 308 308 309 308 308 308 308 308 308 309 307 307 307 307 306 305 307 310 311 311 311
299 301 302 302 302 306 309 309 309 308 310 309 311 310 308 309 309 309 310 309 308 308 309 309 304 307 307 306 308 307 308 309 309 310 308 308 306 306 304 304 306 310 311 311 311
299 299 300 301 300 304 307 309 309 308 310 309 309 310 310 308 308 308 309 309 309 308 309 308 308 306 305 306 306 306 307 308 309 309 308 308 306 304 307 308 307 309 310 310 311
298 299 297 303 304 305 307 307 308 308 309 310 309 310 311 310 308 309 310 309 309 309 308 308 304 306 306 307 306 307 307 306 307 307 308 307 308 305 304 304 307 309 310 310 311
Wind_Speed
36 35 33 31 30 39 37 39 31 31 30 28 24 24 19 21 20 21 26 27 29 18 12 11 10 7 8 7 5 4 3 2 5 7 5 12 5 12 9 15 7 9 9 7 29
27 38 35 33 31 40 40 37 33 31 29 28 28 20 18 16 14 21 25 17 21 25 20 17 11 11 7 5 5 3 3 6 3 5 7 14 14 13 7 11 5 9 9 20 35
29 40 36 33 32 37 42 40 38 33 27 24 24 22 18 14 6 19 22 19 22 22 23 16 16 15 3 5 5 4 5 2 3 5 14 20 14 8 18 3 13 22 22 27 35
31 36 37 34 33 35 43 40 40 34 29 27 23 22 18 15 7 3 11 23 27 21 22 17 19 7 7 7 4 2 6 3 6 6 11 14 15 8 19 8 15 20 23 27 33
31 28 41 36 33 34 40 40 40 36 32 27 26 22 20 17 11 1 11 28 23 23 27 20 16 8 6 6 4 1 3 1 4 5 6 11 8 9 18 8 14 20 26 27 27
25 41 31 36 35 32 35 40 40 38 34 30 27 26 22 8 14 5 7 29 28 24 28 22 13 15 7 3 6 1 6 1 4 1 3 4 3 8 12 11 20 26 28 28 27
29 32 45 38 37 32 31 36 36 38 35 30 25 23 23 22 11 10 8 23 26 23 23 25 10 13 10 1 10 13 4 2 3 2 2 5 1 6 10 15 24 30 29 28 26
27 33 30 42 37 33 31 32 31 34 33 30 28 27 8 20 12 10 9 18 26 21 22 23 16 15 8 7 9 11 3 4 2 6 1 3 8 5 12 19 23 30 29 28 25
19 32 26 40 38 34 33 30 28 31 30 29 28 20 6 11 24 10 12 17 25 21 18 21 15 8 6 7 2 1 5 4 3 8 2 3 7 5 7 20 23 27 29 28 26
18 27 25 43 41 37 34 32 27 29 27 24 20 10 11 16 25 20 14 15 23 21 12 14 8 4 2 4 9 4 3 4 6 6 3 3 7 6 3 20 25 26 27 27 27
17 30 26 43 42 42 40 40 32 14 36 12 23 4 16 14 18 21 19 21 16 19 6 6 4 6 7 6 7 6 6 5 3 3 4 7 6 10 13 7 16 24 23 24 27
21 29 35 35 46 47 49 38 40 22 13 10 26 9 17 21 11 22 24 13 10 5 7 3 5 10 11 9 6 6 5 3 2 1 4 2 11 10 8 12 22 24 23 27 26
28 28 34 46 50 49 51 37 25 40 8 4 24 14 20 19 9 27 30 13 9 7 6 7 8 9 9 5 8 6 6 5 4 2 1 2 7 6 7 17 25 29 33 33 32
26 18 38 42 53 49 44 31 31 27 5 5 7 9 13 11 3 28 34 17 5 12 9 6 7 12 6 7 6 6 7 6 7 5 4 3 5 5 4 8 8 30 37 39 38
22 28 37 48 42 51 47 35 35 13 8 14 7 9 20 20 13 18 32 9 9 8 8 7 9 6 7 7 9 8 7 8 5 3 3 2 2 7 4 7 11 18 29 35 40
22 32 40 46 41 50 48 38 23 4 5 11 14 12 14 11 6 16 24 7 10 6 3 7 3 8 10 4 6 9 7 7 4 2 2 7 6 5 5 9 6 7 14 22 21
19 35 35 42 40 50 46 39 5 9 7 8 10 15 19 8 7 5 16 7 7 8 7 2 3 3 6 7 1 4 7 2 1 2 5 2 3 11 6 10 7 12 14 10 14
18 34 35 44 45 53 48 11 9 15 11 5 12 19 14 20 5 7 16 15 7 6 6 10 5 6 5 7 8 7 8 6 7 5 5 4 6 6 8 14 23 17 8 8 9
13 30 33 45 56 61 40 13 13 16 9 11 17 19 7 17 7 8 17 23 17 9 7 7 3 2 1 4 13 5 6 6 6 3 3 4 5 11 7 9 4 8 11 12 12
7 23 38 38 66 61 17 14 6 10 13 18 11 14 15 24 11 12 18 18 18 11 7 6 4 1 1 4 2 6 8 2 3 4 4 4 5 5 7 8 8 9 17 17 13
10 15 25 13 68 45 19 17 5 12 26 16 7 7 14 18 16 15 14 3 17 13 3 5 4 2 3 7 9 4 5 2 4 5 5 2 6 8 10 11 10 16 19 17 14
9 2 14 32 13 13 16 10 13 8 22 5 7 5 19 20 16 15 18 15 28 26 10 2 5 4 10 1 2 3 7 9 5 5 3 3 8 6 10 10 13 16 17 16 16
7 4 10 30 10 15 12 10 10 11 20 9 7 5 7 18 14 15 13 11 31 20 19 8 2 3 4 4 1 6 3 5 4 2 6 4 7 5 4 2 6 10 10 12 15
6 3 4 8 6 13 11 20 15 11 19 6 6 7 15 13 6 17 9 5 28 15 18 14 4 8 10 6 8 5 7 4 5 1 6 12 12 3 5 6 7 7 8 10 12
6 2 6 4 5 4 12 19 18 12 7 12 3 15 13 11 20 9 9 5 16 26 14 11 6 3 0 4 7 6 10 16 13 26 9 25 13 17 9 10 13 12 12 14 15
4 2 4 4 9 8 12 22 26 18 14 22 8 10 5 9 13 8 11 6 16 6 17 10 3 5 3 5 5 4 18 25 30 19 22 15 20 10 19 22 15 15 16 19 20
4 1 2 10 10 8 9 13 26 26 2 20 16 16 10 6 18 20 17 19 18 21 17 13 7 6 8 5 6 7 23 19 20 17 25 17 34 7 5 9 21 26 27 26 26
Wind_Direction
216 216 216 211 208 201 203 211 214 211 216 217 216 219 215 223 225 226 229 231 220 206 180 168 159 175 166 164 148 151 68 197 214 164 217 175 146 163 166 151 157 176 182 206 164
239 217 214 214 210 202 200 203 208 208 207 203 208 199 200 204 213 228 234 218 214 211 203 206 156 147 137 159 174 144 134 219 223 210 191 181 148 145 145 134 129 161 172 162 165
252 211 213 214 211 204 199 202 203 207 198 193 191 186 183 188 212 243 228 209 188 187 197 196 201 184 132 158 168 182 195 228 276 306 206 169 151 149 149 214 187 171 163 166 173
231 211 213 211 208 206 200 204 199 202 196 192 182 176 180 185 185 225 201 188 171 178 186 172 166 186 153 162 146 213 257 285 314 338 176 169 162 156 169 205 210 200 185 174 180
217 231 211 208 204 209 203 203 199 199 196 195 185 179 172 189 226 196 193 180 183 180 184 181 191 165 151 147 119 174 272 303 313 2 154 160 155 184 201 217 185 186 183 185 189
229 228 203 203 201 205 206 202 198 197 197 194 192 175 187 194 210 212 186 186 193 189 188 191 200 201 155 226 137 233 249 266 290 346 84 155 148 167 201 203 182 184 191 195 198
232 226 228 201 199 196 203 197 198 193 192 193 189 180 196 207 208 217 185 191 194 194 195 198 212 182 164 97 214 261 234 330 239 239 177 132 315 216 185 184 179 189 196 200 206
226 223 231 192 193 188 192 193 190 188 184 182 179 181 203 213 199 192 191 189 193 192 201 198 195 197 187 187 159 199 139 188 248 179 225 145 240 255 196 190 191 196 201 206 208
221 217 221 189 184 180 179 184 183 174 173 172 175 179 198 204 213 186 190 187 181 190 196 193 199 199 181 139 110 24 166 175 281 199 134 163 242 238 221 202 194 201 205 212 217
238 206 216 185 177 174 173 173 167 160 158 158 177 158 193 196 203 199 183 183 172 179 159 172 184 150 81 142 193 160 147 173 204 216 175 189 256 267 266 205 205 208 214 219 225
248 209 208 181 175 168 164 152 141 147 161 189 185 159 166 170 188 186 180 167 171 167 150 179 138 189 190 179 172 174 175 175 231 190 146 210 248 250 249 224 225 229 224 227 232
243 199 197 187 178 171 169 164 170 179 139 142 172 132 152 162 159 175 172 154 151 164 126 86 209 208 184 192 156 154 159 217 306 157 143 214 253 251 249 240 236 237 239 240 241
238 195 199 190 173 173 176 174 170 152 124 153 177 154 157 167 165 173 173 160 153 152 167 162 215 168 182 189 180 190 172 169 198 156 64 338 286 254 255 241 245 243 245 246 246
241 200 187 183 168 176 175 170 159 160 97 188 184 202 171 154 183 181 177 165 165 180 145 197 207 164 176 197 153 195 188 154 146 147 199 152 268 301 261 258 226 244 244 245 244
235 216 190 189 169 176 173 167 158 168 147 150 170 177 174 155 142 189 177 182 165 161 129 231 161 149 184 190 172 220 138 144 141 123 92 310 65 273 275 270 252 244 247 250 247
234 212 195 187 180 180 168 155 151 76 207 183 156 170 153 172 158 155 180 176 167 128 89 191 197 172 184 136 169 147 91 48 56 84 263 199 174 251 212 222 261 272 269 256 249
213 215 208 182 169 173 167 158 110 188 159 171 175 173 170 156 130 193 180 185 171 137 169 146 195 189 155 107 60 130 105 39 2 306 225 159 205 243 251 258 230 262 268 244 235
199 206 213 186 179 165 161 150 176 188 175 139 153 153 174 148 159 171 171 193 243 128 135 174 202 184 177 166 166 176 161 157 183 201 220 116 223 248 243 268 259 262 248 200 191
196 190 210 211 176 165 161 178 197 166 171 140 133 155 160 181 127 145 192 193 191 184 155 152 208 330 173 156 156 198 196 153 105 34 59 230 288 303 262 263 242 216 200 198 199
233 180 214 178 173 164 170 191 159 168 131 146 161 193 169 177 154 182 184 202 191 172 157 180 137 329 156 103 349 195 145 91 4 131 240 254 257 226 263 244 215 209 207 206 201
206 176 211 185 167 167 188 188 167 181 154 165 151 171 168 174 177 191 193 254 193 176 144 125 99 266 155 213 169 140 182 152 137 158 181 199 249 217 206 221 200 226 220 210 208
175 162 189 210 176 181 190 174 165 166 171 169 132 118 176 173 186 200 198 201 188 179 165 101 114 167 199 286 236 244 185 191 174 217 239 166 245 194 216 222 220 229 226 226 222
180 189 160 185 191 184 162 200 181 161 181 160 150 160 154 174 192 203 193 206 177 175 175 170 181 91 46 328 197 219 177 171 106 75 205 147 260 352 133 153 207 213 192 200 209
186 168 56 192 284 191 162 188 175 167 187 171 133 126 147 181 193 191 169 148 177 178 174 151 167 171 190 191 132 174 187 198 136 136 215 232 234 227 224 194 212 195 195 199 212
207 196 152 178 214 218 178 166 180 164 169 191 185 172 158 173 194 182 155 118 168 179 159 161 183 150 227 166 147 164 179 190 204 220 191 245 245 218 213 206 212 216 206 207 214
173 168 191 133 144 181 205 181 184 170 159 195 184 179 176 154 185 156 144 143 170 157 170 183 200 129 251 124 141 174 200 201 212 210 239 250 281 129 215 216 207 211 217 221 228
170 173 280 172 171 182 210 193 192 175 115 192 189 177 192 187 162 166 163 173 160 174 182 170 130 173 214 162 106 287 215 204 217 207 221 229 241 117 157 189 220 231 236 236 239